Flag for Germany Weather past 2 weeks in Dinslaken, North Rhine-Westphalia, Germany

Now
63 °F

Passing clouds.


Feels Like: 63 °F
Forecast: 55 / 69 °F
Wind: 3 mph from West

Location: Essen

Current Time: Oct 1, 2014 at 1:37:40 PM

Latest Report: Oct 1, 2014 at 1:00 PM


Visibility: 6 mi

Pressure: 30.33 "Hg

Humidity: 80%

Dew point: 57 °F

Location of DinslakenLocation

Historic Weather in Dinslaken — Graph

°F

Dinslaken temperature yesterday

Maximum temperature yesterday: 66 °F (at 5:00 PM)
Minimum temperature yesterday: 58 °F (at 11:00 PM)
Average temperature yesterday: 61 °F

Past Weeks' High & Low Weather Summary

 TemperatureHumidityPressure
High77 °F (Sep 17, 4:00 PM)100% (Sep 19, 12:00 AM)30.40 "Hg (Sep 19, 12:00 AM)
Low46 °F (Sep 23, 7:00 AM)49% (Sep 17, 6:00 PM)29.82 "Hg (Sep 19, 5:00 AM)
Average60 °F83%30.08 "Hg
* Reported Sep 16 12:00 Noon — Oct 1 12:00 Noon, Dinslaken, Weather by CustomWeather, © 2014

Note: Actual official high and low records may vary slightly from our data, if they occured in-between our weather recording intervals... More about our weather records

Advertising

Dinslaken weather history for previous 24 hours

 ConditionsComfort  
Time TempWeatherWind HumidityBarometerVisibility
12:00 PM
Oct 1
62 °FFog.3 mph82%30.33 "Hg3 mi
11:00 AM60 °FFog.3 mph92%30.32 "Hg2 mi
10:00 AM59 °FFog.3 mph97%30.32 "Hg2 mi
9:00 AM57 °FFog.2 mph98%30.31 "Hg1 mi
8:00 AM57 °FFog.2 mph99%30.29 "Hg1 mi
7:00 AM57 °FFog.2 mph99%30.29 "Hg1 mi
6:00 AM57 °FOvercast.3 mph99%30.29 "Hg1 mi
5:00 AM57 °FDrizzle. Low clouds.2 mph99%30.30 "Hg1 mi
4:00 AM58 °FLight rain. Low clouds.3 mph94%30.30 "Hg2 mi
3:00 AM59 °FFog.2 mph87%30.30 "Hg2 mi
2:00 AM59 °FFog.2 mph88%30.29 "Hg3 mi
1:00 AM58 °FFog.2 mph92%30.29 "Hg2 mi
12:00 AM57 °FFog.1 mph98%30.30 "Hg2 mi
11:00 PM
Sep 30
58 °FFog.1 mph95%30.30 "Hg2 mi
10:00 PM60 °FFog.2 mph90%30.29 "Hg3 mi
9:00 PM60 °FFog.1 mph90%30.29 "Hg4 mi
8:00 PM62 °FClear.2 mph82%30.29 "Hg6 mi
7:00 PM63 °FPassing clouds.2 mph81%30.27 "Hg7 mi
6:00 PM65 °FScattered clouds.2 mph73%30.27 "Hg7 mi
5:00 PM66 °FPassing clouds.3 mph73%30.27 "Hg7 mi
4:00 PM65 °FScattered clouds.2 mph75%30.27 "Hg6 mi
3:00 PM65 °FOvercast.2 mph77%30.28 "Hg7 mi
2:00 PM65 °FOvercast.3 mph76%30.28 "Hg7 mi
1:00 PM65 °FOvercast.5 mph76%30.27 "Hg7 mi
Weather by CustomWeather, © 2014

See weather overviewHow to use our weather pages